Lapse_Rate
5.5 5.4 5.4 5.3 5.2 5.2 5.2 5.1 5.1 5.2 5.4 5.5 5.6 5.7 5.7 6.0 6.4 6.8 7.1 7.1 7.3 7.5 7.9 8.0 8.0 8.0 8.3 8.6 8.6 8.1 7.5 8.1 8.0 8.4 7.9 7.8 7.8 8.2 8.0 7.7 7.6 7.5 7.5 7.4 7.0
5.5 5.6 5.6 5.5 5.4 5.3 5.3 5.3 5.2 5.2 5.3 5.4 5.5 5.7 5.8 5.8 6.5 6.9 6.7 7.0 7.3 7.6 7.9 8.2 8.0 8.3 8.7 8.7 8.5 8.6 8.5 8.9 8.5 8.6 8.4 7.8 8.1 8.5 8.4 8.1 7.5 7.4 7.4 7.3 6.8
5.5 5.5 5.6 5.6 5.6 5.5 5.4 5.4 5.4 5.2 5.2 5.3 5.3 5.5 5.9 5.9 6.2 6.5 6.9 6.9 7.2 7.5 7.9 8.2 8.5 8.9 8.6 8.5 8.4 8.6 9.1 9.1 8.7 8.9 8.6 8.4 8.5 8.4 8.5 8.4 8.0 7.6 7.4 7.2 6.9
5.5 5.5 5.6 5.7 5.7 5.7 5.7 5.6 5.5 5.5 5.4 5.3 5.3 5.4 5.6 5.9 6.0 6.7 6.7 6.8 7.0 7.3 7.8 8.0 8.7 8.5 8.3 8.4 8.0 8.3 9.0 9.0 9.2 9.1 8.5 8.7 8.5 8.7 8.5 8.4 8.3 7.7 7.6 7.3 7.3
5.6 5.6 5.6 5.7 5.8 5.8 5.8 5.8 5.7 5.6 5.5 5.4 5.3 5.3 5.5 5.8 6.2 6.6 6.7 7.0 7.0 7.0 7.5 8.1 8.3 8.1 8.2 7.9 7.9 8.4 8.7 8.8 9.4 9.4 9.2 8.8 8.9 8.9 8.7 8.2 8.3 7.7 7.5 7.4 7.3
5.6 5.7 5.7 5.7 5.9 6.0 6.0 6.0 6.0 5.8 5.7 5.5 5.4 5.4 5.6 6.2 5.7 6.2 6.5 7.0 7.0 7.2 7.3 7.7 7.8 8.0 8.0 8.0 7.8 7.8 8.5 9.0 9.0 9.3 9.5 9.2 8.9 8.8 8.7 8.4 8.3 7.9 7.6 7.4 7.1
5.6 5.7 5.8 5.8 5.9 6.0 6.1 6.1 6.2 6.1 5.9 5.8 5.6 5.6 5.8 6.1 5.6 6.1 6.5 7.0 7.2 7.5 7.5 7.7 7.4 7.8 8.0 7.9 7.9 8.1 8.9 9.0 9.1 9.5 9.5 9.2 8.9 8.8 8.6 8.7 8.3 7.8 7.6 7.8 7.4
5.5 5.6 5.9 5.9 6.0 6.1 6.1 6.2 6.2 6.2 6.1 6.0 5.9 5.9 6.3 5.7 5.8 6.1 6.5 7.1 7.3 7.5 7.7 7.4 7.4 7.6 7.8 8.1 8.2 8.8 9.2 9.5 9.5 9.5 9.5 9.4 9.0 8.8 8.7 8.6 8.3 7.8 7.9 8.1 7.6
5.6 5.7 5.8 6.0 6.1 6.2 6.2 6.1 6.3 6.4 6.2 6.1 6.0 6.1 6.1 6.0 6.3 6.3 6.7 7.3 7.5 7.7 7.8 7.4 7.6 7.8 8.2 8.5 8.7 9.3 9.4 9.2 9.4 9.6 9.5 9.4 8.9 8.9 8.6 8.7 8.4 8.1 8.1 7.8 8.0
5.6 5.8 5.9 5.9 6.1 6.2 6.3 6.2 6.3 6.4 6.3 6.1 6.1 6.1 6.1 6.1 6.3 6.1 6.3 6.7 7.3 7.5 7.6 7.4 7.8 8.0 8.9 8.6 8.8 9.0 9.1 9.3 9.1 9.5 9.4 9.4 9.1 8.7 8.8 8.9 8.8 8.5 8.0 7.8 7.8
5.8 5.8 5.9 6.0 6.1 6.3 6.3 6.2 6.2 6.3 6.3 6.3 6.3 6.2 6.1 6.1 6.4 6.1 6.1 6.5 6.8 7.2 7.7 7.6 7.7 8.3 9.1 8.7 8.8 8.7 8.8 8.8 9.1 9.3 9.4 9.3 9.1 8.9 8.8 8.8 8.6 8.5 8.2 8.0 7.9
6.0 5.9 6.0 6.1 6.2 6.3 6.2 6.1 5.9 5.9 6.3 6.3 6.4 6.5 6.5 6.4 6.4 6.2 6.3 6.3 6.4 7.1 7.4 7.7 7.9 9.1 9.1 9.0 8.7 8.5 8.7 9.1 9.2 9.1 9.4 9.2 9.1 8.7 8.4 8.3 8.4 8.4 8.1 7.7 7.8
6.0 6.1 6.1 6.2 6.2 6.2 5.9 5.9 6.0 6.0 6.3 6.7 6.6 6.5 6.2 6.4 6.4 6.2 6.2 6.6 6.7 7.2 7.3 7.9 8.4 8.6 8.9 8.9 8.8 9.0 8.9 9.0 9.4 9.3 9.3 9.1 8.6 8.5 8.3 8.2 8.0 8.1 8.0 7.6 7.6
6.1 6.2 6.2 6.2 6.3 6.1 6.0 6.3 6.2 6.0 6.2 7.0 6.8 6.7 6.5 6.3 6.6 6.4 6.3 6.9 6.8 7.3 7.8 8.2 8.5 8.7 8.9 9.1 8.7 8.8 9.2 9.3 9.5 9.3 9.3 8.7 8.8 8.5 8.3 8.2 8.1 8.2 7.9 7.2 7.3
6.1 6.4 6.3 6.3 6.3 6.2 6.2 6.4 6.2 6.2 5.4 7.1 6.9 6.9 6.6 6.5 6.5 6.6 6.8 6.7 7.1 7.5 7.8 8.6 8.9 8.8 8.9 9.3 8.8 9.1 9.1 9.5 9.4 9.4 9.3 8.8 8.7 8.7 8.4 8.4 8.2 8.1 8.1 7.4 7.1
6.1 6.5 6.4 6.5 6.3 6.3 6.2 6.4 6.4 6.3 6.1 7.3 7.1 7.0 6.8 6.6 6.6 6.5 6.7 7.0 7.6 7.7 7.9 8.4 8.5 8.7 9.1 9.3 8.9 9.3 9.1 9.5 9.5 9.4 8.7 8.8 8.7 8.6 8.9 8.5 8.5 8.2 8.4 7.9 7.0
6.1 6.6 6.6 6.6 6.5 6.3 6.3 6.5 6.5 6.4 7.7 7.9 7.6 7.3 7.0 7.0 6.8 6.7 6.7 7.2 7.2 7.4 7.8 8.2 8.7 9.1 9.1 9.0 9.1 9.4 9.5 9.2 8.5 7.4 7.5 8.5 8.2 8.7 8.6 8.4 8.3 8.2 8.2 8.0 7.0
6.3 6.7 6.8 6.7 6.9 6.6 6.5 6.6 6.6 7.7 7.8 7.6 7.7 7.5 7.3 7.4 7.2 7.2 7.0 7.3 7.4 7.7 8.3 8.5 9.1 9.2 8.9 9.0 9.3 9.4 9.3 9.1 8.0 6.7 7.9 8.5 8.3 8.6 8.4 8.4 8.3 8.6 8.2 7.9 7.2
6.6 7.0 6.9 7.0 7.0 6.9 6.7 6.6 7.6 8.0 7.5 7.4 7.8 7.9 7.8 7.9 8.0 7.9 7.7 7.6 7.8 7.9 7.9 8.2 8.5 9.1 9.3 9.4 9.3 9.5 9.3 9.3 9.0 8.0 7.7 8.0 8.7 8.8 8.4 8.1 8.2 8.3 8.3 7.6 7.1
6.8 7.0 7.0 7.1 6.9 6.8 6.7 7.1 7.6 7.8 7.8 7.6 8.0 8.2 8.3 8.3 8.1 8.3 8.4 8.6 8.4 8.3 8.3 8.2 8.7 9.3 9.5 9.2 9.5 9.3 9.3 9.2 9.0 6.9 6.9 7.0 7.4 8.4 8.5 8.1 8.4 8.3 8.3 7.4 7.3
6.8 6.7 6.9 6.8 6.7 6.6 6.6 7.3 8.0 8.0 7.7 7.8 8.1 8.1 8.6 8.6 8.6 8.7 8.6 8.7 8.6 8.4 8.4 8.4 8.5 9.3 9.2 8.8 9.2 9.1 9.2 9.2 9.0 8.6 6.4 5.7 7.5 8.6 8.5 8.5 8.2 8.2 8.2 7.8 7.7
6.6 6.5 6.6 6.5 6.6 6.5 6.9 8.0 7.8 7.8 7.7 7.9 8.2 8.7 8.8 8.9 8.8 8.8 8.5 8.6 8.9 8.6 8.6 8.8 8.7 8.9 9.2 9.1 9.0 9.2 9.2 9.3 9.2 8.3 8.2 7.8 8.0 8.3 7.9 7.9 7.5 8.1 8.1 8.2 7.7
6.5 6.3 6.5 6.4 6.5 6.5 6.8 7.1 7.9 8.1 8.3 8.3 8.4 8.5 8.7 9.0 9.1 9.1 9.1 9.2 9.1 9.2 9.1 9.0 8.8 8.8 9.1 9.2 9.2 8.8 8.8 8.9 8.9 8.8 8.6 7.7 8.5 8.7 8.0 7.9 7.5 7.9 7.9 8.0 7.8
6.4 6.1 6.2 6.4 6.5 6.4 6.6 7.6 7.9 8.2 8.4 8.3 8.6 8.9 8.9 9.1 9.1 9.0 9.4 9.5 9.4 9.4 9.6 9.3 9.2 9.2 9.3 9.5 9.4 8.9 8.8 8.8 8.6 8.5 8.4 8.4 8.8 8.6 8.4 8.4 8.1 8.1 8.2 8.1 7.9
6.1 6.1 6.5 6.4 6.3 6.2 6.5 7.3 7.7 8.0 8.1 8.2 8.4 8.7 8.9 9.1 9.1 9.2 9.3 9.4 9.4 9.4 9.4 9.2 9.4 9.3 9.4 9.3 9.2 9.0 8.9 9.0 8.7 8.7 8.8 9.1 9.2 9.0 8.8 8.8 8.7 8.3 8.4 8.0 7.8
6.0 6.1 6.6 6.6 6.3 6.3 6.3 6.8 7.2 8.0 7.9 8.4 8.2 8.7 8.9 9.0 8.9 9.0 9.1 9.4 9.5 9.4 9.5 9.2 9.5 9.3 9.3 9.1 9.0 9.0 8.7 8.6 8.8 8.8 9.0 9.0 9.5 9.3 9.1 8.8 8.4 8.5 8.4 8.1 8.1
5.9 5.9 6.4 6.4 6.4 6.5 6.4 6.9 7.2 7.7 8.5 7.9 8.4 8.5 8.7 8.7 8.8 8.9 9.0 9.3 9.5 9.3 9.4 9.4 9.4 9.2 9.0 8.9 9.0 9.0 9.2 9.2 8.6 8.8 8.8 8.8 9.0 9.0 8.9 8.8 8.3 8.2 8.1 8.1 8.1
Wind_Speed
16 17 18 19 19 19 20 20 21 19 18 17 18 20 22 24 24 2 6 10 5 7 6 3 4 5 6 5 6 4 2 3 8 5 4 11 5 4 1 9 3 6 6 10 17
15 16 17 18 19 20 19 19 20 20 20 19 18 18 19 21 4 8 11 13 14 9 3 5 5 6 2 1 3 4 4 8 6 8 6 10 6 8 5 7 2 5 13 18 20
16 17 17 18 19 19 19 18 17 18 19 20 20 20 18 15 4 8 5 7 3 7 3 1 2 3 5 3 2 3 5 4 5 8 9 9 7 3 10 2 8 20 17 22 20
17 17 18 18 19 20 19 18 17 17 17 18 19 21 24 3 4 4 9 13 8 6 1 2 4 4 4 5 2 5 7 5 2 5 7 9 6 7 8 6 12 19 21 21 21
17 18 18 20 20 20 19 17 16 15 15 15 16 17 7 2 10 8 12 5 3 1 4 2 3 1 2 6 8 3 6 5 4 3 5 10 8 5 9 9 11 16 18 19 18
18 18 19 19 21 21 20 18 15 16 15 13 13 14 1 5 6 4 8 4 2 2 4 3 4 3 5 4 2 7 7 6 5 5 3 6 4 6 2 14 14 16 9 11 11
19 19 20 20 21 21 20 18 16 15 13 11 9 3 1 13 1 14 8 2 5 3 3 3 3 2 6 8 3 7 6 1 2 3 6 8 2 1 9 16 16 14 7 6 6
18 19 20 21 22 23 20 18 17 15 11 8 4 1 7 5 7 10 2 7 4 5 6 8 5 4 4 5 7 6 4 5 5 1 0 7 2 2 12 17 13 13 13 14 10
20 20 21 21 23 23 23 24 17 10 7 4 1 1 9 8 4 9 7 7 5 5 5 6 5 3 4 2 5 6 2 3 8 3 2 5 4 4 9 12 13 10 12 5 9
22 22 21 22 22 23 27 17 1 2 4 4 4 3 5 4 5 3 5 5 4 4 7 4 5 1 4 5 3 4 6 5 7 4 8 9 4 4 12 14 14 15 11 7 12
23 23 22 22 22 19 11 3 3 2 1 9 6 4 6 8 3 4 4 6 2 6 1 4 4 7 5 6 4 4 3 5 8 3 6 4 3 4 4 9 11 8 6 8 8
24 24 23 22 21 16 2 1 4 2 7 12 11 8 6 3 5 5 3 4 3 4 2 5 6 5 3 2 4 3 5 8 4 4 4 3 3 6 6 2 8 8 7 8 5
25 24 25 26 26 2 2 6 4 7 3 8 6 6 5 8 7 8 7 4 3 3 4 7 5 4 2 6 6 8 5 4 6 3 6 5 4 4 4 4 4 4 3 4 10
26 24 23 30 1 2 4 4 7 6 3 6 4 7 5 6 4 9 8 7 2 9 6 5 6 5 4 7 5 7 12 9 8 4 4 4 4 3 3 3 2 4 1 6 10
26 24 19 11 6 2 2 6 3 3 3 3 3 1 3 9 3 5 6 4 8 5 6 7 1 3 4 11 6 12 5 3 5 5 5 5 4 7 1 4 4 5 2 3 7
28 23 18 1 3 7 14 7 3 5 6 4 5 6 5 1 2 0 5 3 3 4 2 6 3 4 7 9 8 6 2 8 5 4 3 5 4 5 5 6 3 4 3 7 7
33 28 8 3 4 2 5 3 5 3 5 2 4 4 3 4 2 2 5 5 5 3 3 7 7 5 5 5 2 6 6 3 4 5 4 2 1 7 6 6 5 5 4 9 8
37 33 4 6 9 6 2 5 2 3 6 6 2 4 5 4 4 4 4 6 3 5 3 3 6 4 4 7 9 2 7 6 5 3 4 2 5 6 3 3 6 9 7 9 7
32 2 2 4 17 2 5 3 6 5 5 8 4 5 2 4 5 3 8 8 9 8 7 4 5 4 4 4 7 4 2 5 7 3 3 4 7 9 7 6 7 4 8 11 8
4 4 4 7 17 3 4 5 4 4 6 3 1 2 5 4 6 7 6 6 6 9 6 2 3 1 7 5 3 7 7 4 3 5 3 5 6 6 4 6 5 8 9 8 8
2 4 3 6 3 5 3 6 5 5 5 5 6 4 8 5 8 6 9 4 12 8 8 6 4 7 5 1 6 3 2 7 6 4 5 1 6 8 11 7 7 5 4 8 8
4 3 2 1 4 1 3 5 6 6 4 8 5 9 6 7 6 9 12 11 12 10 11 7 5 4 11 5 6 5 4 5 5 4 1 4 7 2 9 8 9 9 5 7 7
3 3 3 3 3 2 5 5 6 10 6 3 5 6 7 7 4 9 11 20 8 11 10 8 2 2 10 7 4 4 1 6 6 4 5 6 6 6 1 6 8 6 5 6 9
2 3 3 3 0 4 4 6 6 6 3 4 7 6 3 2 1 5 7 3 13 11 9 9 4 7 7 8 5 3 1 3 6 4 4 6 7 5 6 7 6 5 3 9 11
1 2 1 2 2 1 3 4 9 7 1 3 6 6 5 3 4 4 5 3 5 5 7 7 7 4 4 1 6 5 5 4 4 5 6 4 8 7 12 11 6 7 8 9 12
1 2 4 2 2 3 2 2 3 9 2 3 5 14 3 3 3 2 3 4 3 7 4 1 2 3 6 6 7 5 3 6 4 4 5 7 5 5 3 9 7 7 11 13 13
2 3 2 3 3 3 3 1 6 9 6 11 11 3 4 5 3 6 10 7 6 4 3 4 5 3 3 3 2 3 4 3 1 3 3 0 6 4 3 7 7 8 13 14 15
Wind_Direction
357 353 349 346 343 339 335 333 331 331 332 331 330 327 325 328 319 295 263 221 168 142 140 179 197 218 166 213 196 145 38 273 183 178 153 168 155 178 146 145 127 210 147 147 141
355 351 347 343 340 336 333 330 328 327 327 327 327 324 325 331 325 281 244 232 232 139 0 14 320 333 322 237 210 143 136 224 192 167 175 172 148 173 135 155 72 108 105 131 144
349 349 346 341 339 334 330 326 323 322 322 324 326 325 324 323 320 251 306 285 165 124 149 260 305 3 337 335 287 262 206 218 171 199 155 150 150 158 119 196 184 155 147 151 151
346 342 342 341 335 335 329 325 322 320 320 320 323 324 322 291 266 258 358 51 116 133 152 331 34 12 331 324 251 314 240 195 230 165 148 151 146 159 171 214 167 157 146 159 162
348 343 338 338 336 331 329 324 320 316 314 314 319 326 340 330 249 299 328 75 78 106 228 117 42 186 325 292 330 191 288 234 225 176 147 138 205 189 200 137 147 148 152 161 172
344 343 340 333 336 332 328 321 316 313 308 309 316 324 314 249 257 282 23 11 133 106 300 126 199 198 275 282 71 281 290 260 188 232 190 151 208 124 135 147 150 159 167 156 173
344 340 339 335 330 331 325 318 311 308 303 302 311 312 292 232 326 322 316 273 165 193 278 214 197 95 358 314 252 265 317 179 222 219 233 116 59 222 161 157 159 159 119 71 108
340 340 336 332 333 329 324 313 302 295 287 286 298 260 246 252 290 289 311 294 230 236 196 240 149 212 175 276 321 336 38 18 297 187 188 130 113 262 165 160 162 154 161 189 125
331 331 331 334 333 331 323 312 294 271 251 246 285 170 265 307 255 251 174 242 338 293 248 252 160 206 23 29 350 6 347 334 321 70 94 75 137 304 181 162 161 152 185 204 133
329 329 327 332 332 332 324 310 242 183 198 202 253 345 275 269 250 251 189 129 237 320 360 61 64 94 45 67 273 317 338 322 292 323 57 93 126 286 217 173 160 173 178 189 176
327 326 324 325 330 333 343 12 28 343 242 201 196 241 290 296 288 250 150 118 132 67 179 354 52 237 186 193 209 289 273 265 278 254 78 39 90 38 67 122 155 186 162 184 201
326 324 320 319 323 322 308 211 208 218 298 232 237 262 283 65 312 288 116 132 124 215 97 14 240 246 260 237 261 257 283 303 308 8 83 113 49 24 37 327 182 193 197 185 201
325 324 321 322 320 83 191 238 263 14 349 290 195 206 209 148 210 261 135 145 167 191 183 191 206 51 257 302 298 284 197 170 210 121 51 104 11 53 2 354 275 299 266 186 187
323 324 326 328 71 325 253 263 309 162 38 274 248 265 156 150 264 209 187 144 223 201 183 238 272 223 235 260 158 289 291 235 144 99 176 67 244 324 316 300 284 294 203 194 219
320 324 325 334 305 234 196 339 270 56 339 189 209 66 145 151 232 208 178 77 180 187 124 234 121 68 269 249 157 238 227 243 119 109 93 351 77 268 317 279 304 313 349 177 164
317 322 325 171 216 244 301 314 92 44 255 328 142 166 136 162 284 123 123 75 163 180 282 226 292 226 228 266 212 259 198 48 62 88 57 267 133 269 213 202 219 258 304 143 127
316 314 295 229 233 218 264 64 44 160 328 210 182 150 148 155 215 152 154 143 163 113 318 338 272 263 198 252 17 74 59 9 1 12 214 338 98 243 208 216 220 255 251 139 145
318 314 228 203 243 283 24 53 177 253 261 298 138 93 159 158 235 191 110 206 248 103 98 148 326 173 186 182 202 122 139 147 196 190 238 276 247 253 159 268 257 253 234 131 140
322 319 242 246 205 346 82 97 217 219 310 349 4 91 318 240 178 152 189 202 202 161 171 156 268 296 235 204 139 190 174 181 106 42 72 287 293 285 237 200 181 139 172 154 152
318 331 268 120 155 93 80 228 242 237 339 354 348 160 202 248 163 168 184 208 210 180 160 202 283 259 302 31 42 160 159 68 14 140 232 301 284 240 278 206 190 128 196 166 157
348 349 309 153 170 53 153 237 275 259 344 353 309 270 241 204 196 196 214 268 195 185 140 143 117 282 18 303 180 92 91 57 109 118 155 226 266 220 223 200 182 158 205 185 161
344 352 351 104 61 53 190 206 248 263 206 255 235 206 241 204 210 204 214 214 183 147 163 200 148 217 239 279 321 105 131 131 121 210 88 125 275 275 227 172 189 196 188 168 151
349 273 323 72 130 252 279 272 261 276 247 226 263 247 217 221 190 200 201 230 157 157 173 174 222 332 332 355 5 60 24 100 109 72 187 133 262 345 49 152 219 199 152 152 143
5 356 331 61 84 111 358 290 301 228 257 239 263 268 251 286 309 264 227 264 163 203 140 114 129 163 189 204 136 148 207 129 116 106 166 230 269 291 268 233 206 197 186 166 158
127 283 181 347 302 318 213 290 307 328 237 21 313 251 243 194 246 357 7 26 71 124 128 132 174 161 6 26 108 157 151 140 119 152 153 272 224 249 222 220 180 176 147 143 76
56 14 348 270 304 313 41 52 313 304 304 303 251 315 246 92 349 4 160 39 105 330 88 60 136 102 38 12 113 110 151 145 177 160 181 243 247 221 140 128 164 151 119 115 115
313 321 107 280 325 99 163 256 252 315 275 232 267 257 93 138 157 81 75 108 84 104 60 71 122 84 157 341 10 21 212 193 167 237 188 248 245 148 119 142 172 138 137 138 130